When you browse on this site, cookies collect data to enhance your experience and personalize the content and advertising you see.
Visit our Privacy Policy to learn more. By continuing to use the site, you agree to this use of cookies and data.
  • In Hungary
  • List of Countries
  • For 7 days
  • Water Temperature
  • Weather Map
  • News
  • Weather Widgets
  • user-avatar
    Login

    Hourly Weather Canico

    Today, 5 April, Sunday

    Time Temperature Precipitation Wind Pressure Humidity
    00:00 +19°C° 0.2 mm 6 mps 755 mmHg 90%
    01:00 +19°C° 0.2 mm 6 mps 755 mmHg 91%
    02:00 +19°C° 0.2 mm 6 mps 755 mmHg 91%
    03:00 +19°C° 0 mm 5 mps 755 mmHg 91%
    04:00 +19°C° 0 mm 5 mps 756 mmHg 91%
    05:00 +19°C° 0 mm 4 mps 756 mmHg 91%
    06:00 +19°C° 0 mm 4 mps 757 mmHg 88%
    07:00 +20°C° 0 mm 4 mps 757 mmHg 84%
    08:00 +20°C° 0 mm 4 mps 758 mmHg 81%
    09:00 +22°C° 0 mm 4 mps 758 mmHg 76%
    10:00 +23°C° 0 mm 4 mps 759 mmHg 70%
    11:00 +25°C° 0 mm 4 mps 759 mmHg 65%
    12:00 +25°C° 0 mm 4 mps 759 mmHg 67%
    13:00 +23°C° 0 mm 4 mps 759 mmHg 69%
    14:00 +23°C° 0 mm 4 mps 759 mmHg 71%
    15:00 +23°C° 0.1 mm 4 mps 759 mmHg 74%
    16:00 +22°C° 0.1 mm 4 mps 759 mmHg 77%
    17:00 +22°C° 0.1 mm 4 mps 759 mmHg 79%
    18:00 +21°C° 0.1 mm 4 mps 760 mmHg 83%
    19:00 +21°C° 0.1 mm 4 mps 760 mmHg 86%
    20:00 +20°C° 0.1 mm 4 mps 761 mmHg 90%
    21:00 +20°C° 0 mm 4 mps 761 mmHg 90%
    22:00 +20°C° 0 mm 4 mps 761 mmHg 89%
    23:00 +20°C° 0 mm 3 mps 761 mmHg 89%

    Tomorrow, 6 April, Monday

    Time Temperature Precipitation Wind Pressure Humidity
    00:00 +20°C° 0 mm 3 mps 761 mmHg 89%
    01:00 +20°C° 0 mm 2 mps 761 mmHg 89%
    02:00 +19°C° 0 mm 2 mps 761 mmHg 88%
    03:00 +19°C° 0 mm 2 mps 760 mmHg 89%
    04:00 +19°C° 0 mm 2 mps 760 mmHg 89%
    05:00 +19°C° 0 mm 2 mps 760 mmHg 89%
    06:00 +20°C° 0 mm 2 mps 761 mmHg 86%
    07:00 +21°C° 0 mm 2 mps 761 mmHg 82%
    08:00 +23°C° 0 mm 2 mps 762 mmHg 79%
    09:00 +23°C° 0 mm 2 mps 762 mmHg 76%
    10:00 +24°C° 0 mm 2 mps 762 mmHg 74%
    11:00 +25°C° 0 mm 2 mps 763 mmHg 71%
    12:00 +25°C° 0 mm 2 mps 763 mmHg 71%
    13:00 +25°C° 0 mm 2 mps 763 mmHg 70%
    14:00 +25°C° 0 mm 2 mps 762 mmHg 70%
    15:00 +25°C° 0 mm 2 mps 762 mmHg 72%
    16:00 +24°C° 0 mm 1 mps 762 mmHg 74%
    17:00 +23°C° 0 mm 1 mps 762 mmHg 77%
    18:00 +23°C° 0 mm 1 mps 763 mmHg 82%
    19:00 +22°C° 0 mm 1 mps 763 mmHg 87%
    20:00 +21°C° 0 mm 1 mps 763 mmHg 92%
    21:00 +21°C° 0 mm 1 mps 763 mmHg 91%
    22:00 +20°C° 0 mm 1 mps 763 mmHg 89%
    23:00 +20°C° 0 mm 1 mps 763 mmHg 88%

    Day after tomorrow, 7 April, Tuesday

    Time Temperature Precipitation Wind Pressure Humidity
    00:00 +20°C° 0 mm 1 mps 763 mmHg 84%
    01:00 +20°C° 0 mm 1 mps 763 mmHg 81%
    02:00 +18°C° 0 mm 0 mps 762 mmHg 78%
    03:00 +17°C° 0 mm 0 mps 762 mmHg 77%
    04:00 +17°C° 0 mm 0 mps 762 mmHg 76%
    05:00 +17°C° 0 mm 0 mps 762 mmHg 75%
    06:00 +20°C° 0 mm 1 mps 762 mmHg 72%
    07:00 +21°C° 0 mm 1 mps 762 mmHg 69%
    08:00 +22°C° 0 mm 1 mps 762 mmHg 67%
    09:00 +23°C° 0 mm 2 mps 763 mmHg 65%
    10:00 +24°C° 0 mm 2 mps 763 mmHg 63%
    11:00 +25°C° 0 mm 2 mps 763 mmHg 62%
    12:00 +25°C° 0 mm 2 mps 763 mmHg 64%
    13:00 +25°C° 0 mm 2 mps 763 mmHg 65%
    14:00 +25°C° 0 mm 3 mps 763 mmHg 67%
    15:00 +24°C° 0 mm 2 mps 762 mmHg 71%
    16:00 +23°C° 0 mm 2 mps 762 mmHg 75%
    17:00 +21°C° 0 mm 2 mps 762 mmHg 79%
    18:00 +21°C° 0 mm 2 mps 762 mmHg 82%
    19:00 +21°C° 0 mm 1 mps 763 mmHg 85%
    20:00 +20°C° 0 mm 1 mps 763 mmHg 88%
    21:00 +20°C° 0 mm 1 mps 763 mmHg 85%
    22:00 +20°C° 0 mm 1 mps 763 mmHg 81%
    23:00 +20°C° 0 mm 1 mps 763 mmHg 78%

    8 April, Wednesday

    Time Temperature Precipitation Wind Pressure Humidity
    00:00 +20°C° 0 mm 1 mps 763 mmHg 76%
    01:00 +20°C° 0 mm 1 mps 763 mmHg 75%
    02:00 +19°C° 0 mm 2 mps 762 mmHg 74%
    03:00 +20°C° 0 mm 1 mps 762 mmHg 75%
    04:00 +20°C° 0 mm 1 mps 762 mmHg 77%
    05:00 +20°C° 0 mm 1 mps 762 mmHg 78%
    06:00 +20°C° 0 mm 1 mps 762 mmHg 76%
    07:00 +21°C° 0 mm 1 mps 762 mmHg 73%
    08:00 +22°C° 0 mm 1 mps 762 mmHg 71%
    09:00 +23°C° 0 mm 1 mps 763 mmHg 70%
    10:00 +24°C° 0 mm 1 mps 763 mmHg 69%
    11:00 +24°C° 0 mm 1 mps 763 mmHg 68%
    12:00 +24°C° 0 mm 2 mps 763 mmHg 69%
    13:00 +25°C° 0 mm 2 mps 763 mmHg 70%
    14:00 +25°C° 0 mm 2 mps 762 mmHg 71%
    15:00 +24°C° 0 mm 2 mps 762 mmHg 74%
    16:00 +24°C° 0 mm 2 mps 762 mmHg 77%
    17:00 +23°C° 0 mm 2 mps 762 mmHg 80%
    18:00 +23°C° 0 mm 1 mps 763 mmHg 83%
    19:00 +22°C° 0 mm 1 mps 763 mmHg 87%
    20:00 +21°C° 0 mm 1 mps 763 mmHg 90%
    21:00 +21°C° 0 mm 1 mps 763 mmHg 91%
    22:00 +21°C° 0 mm 1 mps 764 mmHg 91%
    23:00 +21°C° 0 mm 1 mps 764 mmHg 92%

    9 April, Thursday

    Time Temperature Precipitation Wind Pressure Humidity
    00:00 +21°C° 0 mm 1 mps 763 mmHg 91%
    01:00 +21°C° 0 mm 1 mps 763 mmHg 91%
    02:00 +21°C° 0 mm 1 mps 762 mmHg 91%
    03:00 +21°C° 0 mm 1 mps 762 mmHg 92%
    04:00 +21°C° 0 mm 1 mps 762 mmHg 92%
    05:00 +20°C° 0 mm 1 mps 763 mmHg 93%
    06:00 +19°C° 0 mm 0 mps 763 mmHg 90%
    07:00 +20°C° 0 mm 0 mps 763 mmHg 86%
    08:00 +21°C° 0 mm 0 mps 763 mmHg 83%
    09:00 +21°C° 0 mm 0 mps 763 mmHg 82%
    10:00 +23°C° 0 mm 1 mps 763 mmHg 82%
    11:00 +24°C° 0 mm 1 mps 763 mmHg 81%
    12:00 +23°C° 0 mm 1 mps 763 mmHg 83%
    13:00 +23°C° 0 mm 1 mps 763 mmHg 86%
    14:00 +20°C° 0 mm 0 mps 762 mmHg 88%
    15:00 +20°C° 0 mm 0 mps 762 mmHg 88%
    16:00 +20°C° 0 mm 0 mps 762 mmHg 89%
    17:00 +20°C° 0 mm 0 mps 762 mmHg 89%
    18:00 +22°C° 0 mm 1 mps 762 mmHg 91%
    19:00 +21°C° 0 mm 1 mps 763 mmHg 93%
    20:00 +21°C° 0 mm 1 mps 763 mmHg 95%
    21:00 +21°C° 0 mm 1 mps 763 mmHg 94%
    22:00 +21°C° 0 mm 1 mps 763 mmHg 94%
    23:00 +19°C° 0 mm 2 mps 763 mmHg 94%

    10 April, Friday

    Time Temperature Precipitation Wind Pressure Humidity
    00:00 +19°C° 0 mm 2 mps 763 mmHg 94%
    01:00 +19°C° 0 mm 2 mps 762 mmHg 95%
    02:00 +19°C° 0 mm 2 mps 762 mmHg 95%
    03:00 +19°C° 0 mm 2 mps 762 mmHg 95%
    04:00 +19°C° 0 mm 2 mps 762 mmHg 96%
    05:00 +19°C° 0 mm 2 mps 762 mmHg 96%
    06:00 +20°C° 0.2 mm 3 mps 762 mmHg 95%
    07:00 +20°C° 0.2 mm 3 mps 762 mmHg 95%
    08:00 +20°C° 0.2 mm 3 mps 763 mmHg 94%
    09:00 +20°C° 0.1 mm 3 mps 763 mmHg 91%
    10:00 +21°C° 0.1 mm 4 mps 763 mmHg 87%
    11:00 +22°C° 0.1 mm 4 mps 763 mmHg 84%
    12:00 +21°C° 0 mm 4 mps 763 mmHg 84%
    13:00 +21°C° 0 mm 4 mps 763 mmHg 84%
    14:00 +21°C° 0 mm 4 mps 762 mmHg 84%
    15:00 +21°C° 0 mm 4 mps 762 mmHg 85%
    16:00 +21°C° 0 mm 4 mps 762 mmHg 87%
    17:00 +20°C° 0 mm 4 mps 762 mmHg 88%
    18:00 +20°C° 0.1 mm 4 mps 762 mmHg 90%
    19:00 +20°C° 0.1 mm 4 mps 762 mmHg 92%
    20:00 +19°C° 0.1 mm 4 mps 763 mmHg 95%
    21:00 +19°C° 0 mm 4 mps 763 mmHg 95%
    22:00 +19°C° 0 mm 4 mps 763 mmHg 94%
    23:00 +19°C° 0 mm 4 mps 763 mmHg 94%
    Show more